TimeMST,TemperatureF,Dew PointF,Humidity,Sea Level PressureIn,VisibilityMPH,Wind Direction,Wind SpeedMPH,Gust SpeedMPH,PrecipitationIn,Events,Conditions,WindDirDegrees,DateUTC
12:53 AM,28.9,23.0,78,29.61,10.0,North,3.5,-,N/A,,Mostly Cloudy,360,2012-12-12 07:53:00
1:53 AM,30.9,23.0,72,29.61,10.0,North,4.6,-,N/A,,Overcast,360,2012-12-12 08:53:00
2:53 AM,30.0,23.0,75,29.62,10.0,NNW,3.5,-,N/A,,Overcast,330,2012-12-12 09:53:00
3:53 AM,30.0,24.1,79,29.62,10.0,South,6.9,-,N/A,,Overcast,190,2012-12-12 10:53:00
4:53 AM,30.9,25.0,79,29.62,10.0,West,4.6,-,N/A,,Overcast,260,2012-12-12 11:53:00
5:53 AM,30.9,24.1,76,29.60,10.0,NNW,3.5,-,N/A,,Overcast,330,2012-12-12 12:53:00
6:53 AM,32.0,24.1,73,29.62,10.0,North,3.5,-,N/A,,Overcast,350,2012-12-12 13:53:00
7:53 AM,28.9,23.0,78,29.64,10.0,NNW,6.9,-,N/A,,Clear,340,2012-12-12 14:53:00
8:53 AM,30.0,23.0,75,29.63,10.0,NW,5.8,-,N/A,,Clear,320,2012-12-12 15:53:00
9:53 AM,35.1,24.1,64,29.63,10.0,Calm,Calm,-,N/A,,Clear,0,2012-12-12 16:53:00
10:53 AM,34.0,24.1,67,29.64,10.0,North,3.5,-,N/A,,Clear,360,2012-12-12 17:53:00
11:53 AM,36.0,23.0,59,29.62,10.0,Calm,Calm,-,N/A,,Clear,0,2012-12-12 18:53:00
12:53 PM,37.0,24.1,59,29.62,10.0,NNW,5.8,-,N/A,,Clear,330,2012-12-12 19:53:00
1:53 PM,37.0,25.0,62,29.62,10.0,North,5.8,-,N/A,,Clear,350,2012-12-12 20:53:00
2:53 PM,42.1,26.1,53,29.63,10.0,Calm,Calm,-,N/A,,Clear,0,2012-12-12 21:53:00
3:53 PM,34.0,26.1,73,29.69,10.0,South,5.8,-,N/A,,Clear,180,2012-12-12 22:53:00
4:53 PM,30.0,25.0,82,29.72,10.0,NNW,5.8,-,N/A,,Clear,330,2012-12-12 23:53:00
5:53 PM,32.0,25.0,75,29.76,10.0,WNW,13.8,-,N/A,,Clear,290,2012-12-13 00:53:00
6:53 PM,30.0,24.1,79,29.81,10.0,West,12.7,-,N/A,,Scattered Clouds,280,2012-12-13 01:53:00
7:53 PM,28.9,21.9,75,29.86,10.0,NW,5.8,-,N/A,,Clear,320,2012-12-13 02:53:00
8:53 PM,30.9,26.1,82,29.88,10.0,WNW,10.4,-,N/A,,Clear,300,2012-12-13 03:53:00
9:53 PM,30.0,25.0,82,29.88,10.0,WNW,15.0,-,N/A,,Clear,290,2012-12-13 04:53:00
10:53 PM,26.1,23.0,88,29.92,10.0,West,5.8,-,N/A,,Partly Cloudy,280,2012-12-13 05:53:00
11:53 PM,23.0,19.9,88,29.94,10.0,South,3.5,-,N/A,,Clear,170,2012-12-13 06:53:00